Location: Newark
(19.4108°N, 99.1922°W)
Time: 08:19:58
(UTC+00:00)

LightSail 2 - Visible Passes

Search period start: 25 January 2020 00:00
Search period end: 04 February 2020 00:00
Orbit: 704 x 719 km, 24.0° (Epoch: 24 January)

Date Brightness Start Highest point End Pass type
(mag) Time Alt. Az. Time Alt. Az. Time Alt. Az.
25 Jan 5.5 00:47:27 10° WNW 00:52:28 51° N 00:57:30 10° E visible
25 Jan 6.1 02:33:01 10° WNW 02:36:32 44° WNW 02:36:32 44° WNW visible
26 Jan 5.1 01:34:32 10° WNW 01:39:41 69° NNE 01:41:55 34° E visible
26 Jan 7.9 03:20:11 10° W 03:20:53 14° W 03:20:53 14° W visible
27 Jan 5.4 02:21:36 10° W 02:26:20 65° SW 02:26:20 65° SW visible
28 Jan 5.1 01:23:04 10° WNW 01:28:14 87° SSW 01:31:51 20° ESE visible
28 Jan 7.6 03:09:04 10° W 03:10:49 19° WSW 03:10:49 19° WSW visible
29 Jan 6.0 02:10:17 10° W 02:15:09 43° SSW 02:16:25 36° SSE visible
30 Jan 5.6 01:11:38 10° W 01:16:41 58° SSW 01:21:46 10° ESE visible
30 Jan 7.5 02:58:23 10° WSW 03:01:05 18° SW 03:01:05 18° SW visible
31 Jan 6.9 01:59:14 10° W 02:03:31 26° SSW 02:06:50 14° SSE visible
01 Feb 6.5 01:00:21 10° W 01:05:03 36° SSW 01:09:46 10° SE visible
01 Feb 7.9 02:49:24 10° SW 02:50:18 10° SSW 02:51:11 10° SSW visible
02 Feb 7.7 01:48:48 10° WSW 01:51:49 16° SSW 01:54:50 10° S visible
03 Feb 7.4 00:49:25 10° WSW 00:53:21 22° SSW 00:57:17 10° SSE visible
